EW3016 Weather Reports


Display with metric or nautical units.
time (UTC)temp
F
wind
direction
speed
MPH
gust
MPH
rain 1hr
in
rain 24hr
in
rain mn
in
humidity
%
barometer
mb
20260507003016 44 293 1.0 5.0 0.00 0.50 0.50 94 1009.4
20260507000017 45 293 1.0 7.0 0.00 0.50 0.50 94 1009.1
20260506233017 45 293 1.0 5.0 0.00 0.50 0.50 94 1008.9
20260506230016 45 293 1.0 8.0 0.00 0.50 0.50 94 1008.3
20260506223016 46 293 1.0 7.0 0.01 0.50 0.50 94 1007.9
20260506220018 46 270 1.0 8.0 0.01 0.50 0.50 94 1007.8
20260506213016 46 293 3.0 10.0 0.01 0.49 0.49 94 1007.1
20260506210016 47 293 5.0 14.0 0.02 0.50 0.49 93 1006.4
20260506203036 48 293 3.0 13.0 0.01 0.64 0.48 93 1005.9
20260506200016 50 293 6.0 13.0 0.00 0.63 0.47 92 1005.5
20260506193016 55 248 4.0 13.0 0.00 0.63 0.47 88 1005.4
20260506190038 58 225 2.0 13.0 0.00 0.63 0.47 90 1005.3
20260506183018 58 180 3.0 12.0 0.00 0.63 0.47 91 1005.2
20260506180016 59 158 4.0 14.0 0.00 0.63 0.47 92 1005.2
20260506173016 58 180 3.0 15.0 0.01 0.63 0.47 93 1005.3
20260506170016 57 158 2.0 14.0 0.03 0.63 0.47 93 1005.5
20260506163016 57 158 3.0 13.0 0.07 0.62 0.46 93 1005.6
20260506160018 57 135 3.0 15.0 0.08 0.60 0.44 93 1005.7
20260506153016 57 158 3.0 14.0 0.05 0.55 0.39 92 1005.9
20260506150036 57 135 5.0 12.0 0.07 0.52 0.36 93 1005.8
20260506143016 55 135 5.0 11.0 0.12 0.50 0.34 94 1006.1
20260506140036 54 158 2.0 10.0 0.13 0.45 0.29 92 1006.7
20260506133016 55 158 2.0 11.0 0.08 0.38 0.22 91 1007.2
20260506130016 55 135 5.0 11.0 0.03 0.32 0.16 90 1006.8
20260506123016 55 135 3.0 12.0 0.03 0.34 0.14 90 1006.7
20260506120017 55 135 3.0 13.0 0.06 0.33 0.13 90 1006.8
20260506113015 55 158 1.0 13.0 0.07 0.31 0.11 89 1007.2
20260506110016 55 0.0 8.0 0.05 0.27 0.07 88 1007.2
20260506103015 54 0.0 0.0 0.04 0.24 0.04 89 1007.0
20260506100016 53 0.0 0.0 0.02 0.22 0.02 92 1006.7
20260506093017 52 0.0 0.0 0.00 0.20 0.00 93 1006.4
20260506090018 53 0.0 0.0 0.00 0.20 0.00 93 1007.0
20260506083018 53 0.0 0.0 0.00 0.20 0.00 93 1007.2
20260506073017 53 0.0 0.0 0.00 0.23 0.00 93 1007.7
20260506043017 53 0.0 0.0 0.00 0.23 0.00 86 1009.8
20260506040042 54 0.0 0.0 0.00 0.23 0.23 86 1009.8
20260506033042 55 0.0 6.0 0.00 0.23 0.23 89 1009.8
20260506030018 56 338 2.0 12.0 0.00 0.23 0.23 90 1009.5
20260506023037 58 0.0 0.0 0.00 0.23 0.23 89 1009.2
20260506020017 60 0.0 0.0 0.00 0.23 0.23 88 1008.8
20260506013017 61 0.0 0.0 0.00 0.23 0.23 85 1008.5
20260506010017 61 0.0 0.0 0.00 0.23 0.23 84 1008.1